Weather History for Claremore, OK

Change the Weather History Date:

Tuesday, October 15, 2013

  Actual Average (KTUL) Record (KTUL)
Temperature  
Mean Temperature 58 °F 62 °F  
Max Temperature 64 °F 73 °F 91 °F (1963)
Min Temperature 51 °F 51 °F 37 °F (2002)
Degree Days  
Heating Degree Days 8 5  
Month to date heating degree days 54  
Since 1 July heating degree days 78  
Cooling Degree Days 0 2  
Month to date cooling degree days 43  
Year to date cooling degree days 2008  
Growing Degree Days 8 (Base 50)    
Moisture  
Dew Point 51 °F    
Average Humidity 82    
Maximum Humidity 94    
Minimum Humidity 59    
Precipitation  
Precipitation 0.00 in 0.13 in 2.12 in (1941)
Month to date precipitation 1.87  
Year to date precipitation 33.61  
Sea Level Pressure  
Sea Level Pressure 30.04 in    
Wind  
Wind Speed 9 mph (NNW)    
Max Wind Speed 14 mph    
Max Gust Speed 20 mph    
Visibility 9 miles    
Events Rain    
T = Trace of Precipitation, MM = Missing Value Source: NWS Daily Summary

Daily Weather History Graph

Daily Weather History Graph

Search for Another Location

Airport:

Trip Planner

Search our weather history database for the weather conditions in past years. The results will help you decide how hot, cold, wet, or windy it might be!

Date:

Astronomy

Oct. 15, 2013 Rise Set
Actual Time 7:29 AM CDT 6:45 PM CDT
Civil Twilight 7:03 AM CDT 7:11 PM CDT
Nautical Twilight 6:33 AM CDT 7:41 PM CDT
Astronomical Twilight 6:03 AM CDT 8:10 PM CDT
Moon 4:46 PM CDT (10/15) 3:58 AM CDT (10/15)
Length of Visible Light 12h 08m
Length of Day
11h 16m
Waxing Gibbous, 88% of the Moon is Illuminated
Oct 15
Waxing Gibbous
Oct 18
Full
Oct 26
Last Quarter
Nov 3
New
Nov 9
First Quarter

Hourly Weather History & Observations

Time (CDT) Temp. Dew Point Humidity Pressure Visibility Wind Dir Wind Speed Gust Speed Precip Events Conditions
12:15 AM 64.4 °F 62.6 °F 94% 29.95 in 7.0 mi South 13.8 mph 19.6 mph N/A   Overcast
12:35 AM 64.4 °F 62.6 °F 94% 29.94 in 7.0 mi SSE 12.7 mph 18.4 mph N/A   Overcast
12:55 AM 64.4 °F 62.6 °F 94% 29.94 in 7.0 mi South 10.4 mph 17.3 mph N/A   Overcast
1:15 AM 64.4 °F 62.6 °F 94% 29.93 in 7.0 mi South 12.7 mph - N/A   Overcast
1:35 AM 64.4 °F 62.6 °F 94% 29.93 in 7.0 mi South 10.4 mph - N/A   Overcast
1:55 AM 64.4 °F 62.6 °F 94% 29.93 in 7.0 mi SSE 10.4 mph - N/A   Overcast
2:35 AM 64.4 °F 62.6 °F 94% 29.93 in 7.0 mi South 8.1 mph - N/A   Overcast
2:55 AM 64.4 °F 62.6 °F 94% 29.93 in 5.0 mi South 11.5 mph 16.1 mph N/A   Overcast
3:15 AM 64.4 °F 62.6 °F 94% 29.93 in 5.0 mi SSW 8.1 mph - N/A   Overcast
3:35 AM 64.4 °F 62.6 °F 94% 29.92 in 5.0 mi South 9.2 mph - N/A   Overcast
3:55 AM 64.4 °F 62.6 °F 94% 29.91 in 1.8 mi South 5.8 mph - N/A Rain Light Rain
4:15 AM 64.4 °F 62.6 °F 94% 29.94 in 3.0 mi WNW 6.9 mph - N/A Rain Light Rain
4:35 AM 64.4 °F 62.6 °F 94% 29.95 in 4.0 mi West 6.9 mph - N/A   Overcast
4:55 AM 64.4 °F 62.6 °F 94% 29.95 in 4.0 mi North 10.4 mph - N/A   Overcast
5:15 AM 60.8 °F 59.0 °F 94% 29.95 in 10.0 mi NNE 9.2 mph - N/A   Overcast
5:35 AM 60.8 °F 59.0 °F 94% 29.95 in 10.0 mi NNE 11.5 mph 16.1 mph N/A   Mostly Cloudy
5:55 AM 59.0 °F 55.4 °F 88% 29.93 in 10.0 mi NNE 10.4 mph - N/A   Scattered Clouds
6:15 AM 59.0 °F 55.4 °F 88% 29.98 in 10.0 mi NW 8.1 mph - N/A   Scattered Clouds
6:35 AM 59.0 °F 55.4 °F 88% 29.98 in 10.0 mi NNW 5.8 mph - N/A   Mostly Cloudy
6:55 AM 59.0 °F 55.4 °F 88% 29.98 in 10.0 mi North 5.8 mph - N/A   Overcast
7:15 AM 59.0 °F 55.4 °F 88% 29.99 in 10.0 mi North 9.2 mph - N/A   Mostly Cloudy
7:35 AM 59.0 °F 55.4 °F 88% 29.99 in 10.0 mi North 10.4 mph - N/A   Mostly Cloudy
7:55 AM 59.0 °F 55.4 °F 88% 30.01 in 10.0 mi North 5.8 mph - N/A   Overcast
8:15 AM 59.0 °F 55.4 °F 88% 30.02 in 10.0 mi North 9.2 mph - N/A   Overcast
8:35 AM 55.4 °F 51.8 °F 88% 30.03 in 10.0 mi NNW 11.5 mph 16.1 mph N/A   Overcast
8:55 AM 55.4 °F 51.8 °F 88% 30.04 in 10.0 mi North 12.7 mph 16.1 mph N/A   Overcast
9:15 AM 55.4 °F 50.0 °F 82% 30.05 in 10.0 mi North 9.2 mph 18.4 mph N/A   Overcast
9:35 AM 53.6 °F 50.0 °F 88% 30.07 in 10.0 mi NNW 5.8 mph - N/A   Mostly Cloudy
9:55 AM 53.6 °F 48.2 °F 82% 30.07 in 10.0 mi NNW 8.1 mph - N/A   Mostly Cloudy
10:15 AM 53.6 °F 48.2 °F 82% 30.08 in 10.0 mi NNW 6.9 mph - N/A   Scattered Clouds
10:35 AM 53.6 °F 48.2 °F 82% 30.08 in 10.0 mi North 10.4 mph 17.3 mph N/A   Clear
10:55 AM 53.6 °F 46.4 °F 77% 30.08 in 10.0 mi North 12.7 mph 18.4 mph N/A   Clear
11:15 AM 53.6 °F 44.6 °F 72% 30.08 in 10.0 mi North 11.5 mph 18.4 mph N/A   Clear
11:35 AM 55.4 °F 46.4 °F 72% 30.09 in 10.0 mi NNW 12.7 mph 17.3 mph N/A   Clear
11:55 AM 55.4 °F 44.6 °F 67% 30.08 in 10.0 mi North 9.2 mph 12.7 mph N/A   Clear
12:15 PM 55.4 °F 46.4 °F 72% 30.10 in 10.0 mi North 8.1 mph - N/A   Clear
12:35 PM 55.4 °F 44.6 °F 67% 30.09 in 10.0 mi NNW 8.1 mph - N/A   Clear
12:55 PM 55.4 °F 46.4 °F 72% 30.09 in 10.0 mi NNW 8.1 mph - N/A   Clear
1:15 PM 55.4 °F 46.4 °F 72% 30.08 in 10.0 mi NW 10.4 mph - N/A   Clear
1:35 PM 55.4 °F 44.6 °F 67% 30.08 in 10.0 mi NNW 11.5 mph - N/A   Clear
1:55 PM 55.4 °F 44.6 °F 67% 30.07 in 10.0 mi NNW 8.1 mph - N/A   Clear
2:15 PM 55.4 °F 44.6 °F 67% 30.07 in 10.0 mi NW 5.8 mph - N/A   Clear
2:35 PM 55.4 °F 44.6 °F 67% 30.06 in 10.0 mi North 6.9 mph - N/A   Clear
2:55 PM 55.4 °F 44.6 °F 67% 30.07 in 10.0 mi NNW 8.1 mph - N/A   Clear
3:15 PM 55.4 °F 44.6 °F 67% 30.07 in 10.0 mi NW 9.2 mph - N/A   Clear
3:35 PM 57.2 °F 44.6 °F 63% 30.06 in 10.0 mi NNW 4.6 mph - N/A   Clear
3:55 PM 59.0 °F 44.6 °F 59% 30.06 in 10.0 mi NW 9.2 mph - N/A   Clear
4:15 PM 57.2 °F 44.6 °F 63% 30.06 in 10.0 mi North 8.1 mph - N/A   Clear
4:35 PM 57.2 °F 44.6 °F 63% 30.06 in 10.0 mi North 4.6 mph - N/A   Clear
4:55 PM 57.2 °F 44.6 °F 63% 30.06 in 10.0 mi NNW 5.8 mph - N/A   Clear
5:15 PM 57.2 °F 44.6 °F 63% 30.07 in 10.0 mi North 6.9 mph - N/A   Clear
5:35 PM 55.4 °F 44.6 °F 67% 30.07 in 10.0 mi NNW 3.5 mph - N/A   Clear
5:55 PM 55.4 °F 46.4 °F 72% 30.07 in 10.0 mi North 4.6 mph - N/A   Clear
6:15 PM 55.4 °F 44.6 °F 67% 30.07 in 10.0 mi North 4.6 mph - N/A   Clear
6:35 PM 55.4 °F 44.6 °F 67% 30.07 in 10.0 mi Calm Calm - N/A   Clear
6:55 PM 53.6 °F 44.6 °F 72% 30.08 in 10.0 mi Calm Calm - N/A   Clear
7:15 PM 53.6 °F 46.4 °F 77% 30.08 in 10.0 mi Calm Calm - N/A   Clear
7:35 PM 53.6 °F 46.4 °F 77% 30.09 in 10.0 mi Calm Calm - N/A   Clear
7:55 PM 51.8 °F 48.2 °F 88% 30.09 in 10.0 mi Calm Calm - N/A   Clear
8:15 PM 53.6 °F 46.4 °F 77% 30.09 in 10.0 mi Calm Calm - N/A   Clear
8:35 PM 51.8 °F 48.2 °F 88% 30.10 in 10.0 mi Calm Calm - N/A   Clear
8:55 PM 51.8 °F 48.2 °F 88% 30.09 in 10.0 mi Calm Calm - N/A   Scattered Clouds
9:15 PM 51.8 °F 50.0 °F 94% 30.11 in 10.0 mi Calm Calm - N/A   Scattered Clouds
9:35 PM 51.8 °F 50.0 °F 94% 30.11 in 10.0 mi Calm Calm - N/A   Clear
9:55 PM 51.8 °F 50.0 °F 94% 30.13 in 10.0 mi Calm Calm - N/A   Clear
10:15 PM 51.8 °F 50.0 °F 94% 30.13 in 10.0 mi Calm Calm - N/A   Scattered Clouds
10:35 PM 51.8 °F 50.0 °F 94% 30.12 in 10.0 mi Calm Calm - N/A   Scattered Clouds
10:55 PM 51.8 °F 50.0 °F 94% 30.12 in 10.0 mi Calm Calm - N/A   Clear
11:15 PM 51.8 °F 46.4 °F 82% 30.12 in 10.0 mi NW 3.5 mph - N/A   Clear
11:35 PM 51.8 °F 46.4 °F 82% 30.12 in 10.0 mi NNW 4.6 mph - N/A   Clear
11:55 PM 51.8 °F 44.6 °F 76% 30.12 in 10.0 mi NNW 4.6 mph - N/A   Clear